Location: Jetmore Oil Field
(38.1181°N, 99.9337°W)
Time: 07:28:35
(UTC+00:00)

Cosmos 1603 - Pass Details

Date: 17 February 2020
Orbit: 833 x 858 km, 71.0° (Epoch: 30 March)

Event Time Altitude Azimuth Distance (km) Brightness Sun altitude
Rises 11:36:01 0° 195° (SSW) 3,412 6.7 -22.7°
Reaches altitude 10° 11:38:28 10° 194° (SSW) 2,477 6.0 -22.2°
Maximum altitude 11:44:09 75° 110° (ESE) 884 3.9 -21.1°
Drops below altitude 10° 11:49:50 10° 26° (NNE) 2,478 6.4 -19.9°
Sets 11:52:17 0° 25° (NNE) 3,414 7.2 -19.5°
